Location: Malvern Link
(52.1333°N, 2.3000°W)
Time: 05:45:40
(UTC+00:00)

AO-92 - Pass Details

Date: 06 July 2022
Orbit: 469 x 481 km, 97.4° (Epoch: 17 August)

Event Time Altitude Azimuth Distance (km) Brightness Sun altitude
Exits shadow 22:12:27 14° 176° (S) 1,445 ? -10.7°
Maximum altitude 22:15:29 66° 258° (WSW) 534 ? -10.9°
Drops below altitude 10° 22:19:05 10° 341° (NNW) 1,677 ? -11.1°
Sets 22:21:10 0° 345° (NNW) 2,564 ? -11.3°
